�������ċp�F�����K�X���j�^�v���󋵏��
Date,Time,�ċp�F�����K�X���j�^(cps),����,����(m/s)
2021/11/24,00:00,1.6,���k��,6.6
2021/11/24,00:10,1.4,���k��,6.7
2021/11/24,00:20,1.5,���k��,6.1
2021/11/24,00:30,1.5,�k��,6.6
2021/11/24,00:40,1.4,���k��,5.4
2021/11/24,00:50,1.5,���k��,4.2
2021/11/24,01:00,1.6,���k��,2.8
2021/11/24,01:10,1.5,���쐼,2.5
2021/11/24,01:20,1.6,���k��,2.5
2021/11/24,01:30,1.4,��,2.6
2021/11/24,01:40,1.5,���k��,3.1
2021/11/24,01:50,1.6,��,2.2
2021/11/24,02:00,1.5,��,2.2
2021/11/24,02:10,1.4,��,3.7
2021/11/24,02:20,1.5,��,4.8
2021/11/24,02:30,1.5,��,5.2
2021/11/24,02:40,1.5,��,2.9
2021/11/24,02:50,1.5,��,2.6
2021/11/24,03:00,1.5,��,2.9
2021/11/24,03:10,1.5,���쐼,4.1
2021/11/24,03:20,1.5,���쐼,2.5
2021/11/24,03:30,1.5,���쐼,2.3
2021/11/24,03:40,1.5,��쐼,2.2
2021/11/24,03:50,1.5,��쐼,2.0
2021/11/24,04:00,1.5,�쐼,2.6
2021/11/24,04:10,1.5,�쐼,4.1
2021/11/24,04:20,1.6,�쐼,6.0
2021/11/24,04:30,1.5,���쐼,5.8
2021/11/24,04:40,1.5,���쐼,6.4
2021/11/24,04:50,1.5,���쐼,6.7
2021/11/24,05:00,1.5,��,4.3
2021/11/24,05:10,1.6,��,3.7
2021/11/24,05:20,1.4,��,3.9
2021/11/24,05:30,1.5,��,5.1
2021/11/24,05:40,1.5,��,6.9
2021/11/24,05:50,1.6,��,8.7
2021/11/24,06:00,1.6,��,8.0
2021/11/24,06:10,1.5,���쐼,8.0
2021/11/24,06:20,1.6,���쐼,6.6
2021/11/24,06:30,1.6,���쐼,5.8
2021/11/24,06:40,1.6,���쐼,5.8
2021/11/24,06:50,1.5,���쐼,6.3
2021/11/24,07:00,1.5,�쐼,5.7
2021/11/24,07:10,1.5,���쐼,5.7
2021/11/24,07:20,1.5,���쐼,5.9
2021/11/24,07:30,1.6,���쐼,6.2
2021/11/24,07:40,1.5,���쐼,5.0
2021/11/24,07:50,1.5,���쐼,4.5
2021/11/24,08:00,1.5,���쐼,4.0
2021/11/24,08:10,1.4,���쐼,7.3
2021/11/24,08:20,1.6,��,9.0
2021/11/24,08:30,1.5,��,7.9
2021/11/24,08:40,1.5,��,7.7
2021/11/24,08:50,1.5,���쐼,10.4
2021/11/24,09:00,1.5,���쐼,11.3
2021/11/24,09:10,1.5,���쐼,10.9
2021/11/24,09:20,1.6,���쐼,11.6
2021/11/24,09:30,1.6,��,10.7
2021/11/24,09:40,1.4,��,10.2
2021/11/24,09:50,1.6,��,11.1
2021/11/24,10:00,1.6,���쐼,9.3
2021/11/24,10:10,1.5,��,8.0
2021/11/24,10:20,1.5,��,9.6
2021/11/24,10:30,1.6,��,9.0
2021/11/24,10:40,1.5,��,8.7
2021/11/24,10:50,1.5,���쐼,7.9
2021/11/24,11:00,1.6,���쐼,8.1
2021/11/24,11:10,1.5,���쐼,6.4
2021/11/24,11:20,1.6,���쐼,8.3
2021/11/24,11:30,1.5,���쐼,7.8
2021/11/24,11:40,1.5,���쐼,11.1
2021/11/24,11:50,1.5,���쐼,8.7
2021/11/24,12:00,1.5,���쐼,9.1
2021/11/24,12:10,1.6,��,9.1
2021/11/24,12:20,1.6,��,9.1
2021/11/24,12:30,1.4,��,8.6
2021/11/24,12:40,1.6,��,7.7
2021/11/24,12:50,1.5,��,9.6
2021/11/24,13:00,1.5,���쐼,10.0
2021/11/24,13:10,1.6,���쐼,7.7
2021/11/24,13:20,1.5,��,8.8
2021/11/24,13:30,1.4,���쐼,9.0
2021/11/24,13:40,1.5,��,9.3
2021/11/24,13:50,1.4,��,6.5
2021/11/24,14:00,1.6,��,7.8
2021/11/24,14:10,1.6,��,8.6
2021/11/24,14:20,1.5,��,9.2
2021/11/24,14:30,1.5,��,7.5
2021/11/24,14:40,1.4,��,8.5
2021/11/24,14:50,1.4,���쐼,6.9
2021/11/24,15:00,1.5,��,6.8
2021/11/24,15:10,1.5,��,8.5
2021/11/24,15:20,1.6,���쐼,8.5
2021/11/24,15:30,1.5,��,9.2
2021/11/24,15:40,1.5,��,10.6
2021/11/24,15:50,1.5,��,10.5
2021/11/24,16:00,1.4,��,7.7
2021/11/24,16:10,1.5,��,6.6
2021/11/24,16:20,1.5,���쐼,5.6
2021/11/24,16:30,1.6,��,7.8
2021/11/24,16:40,1.5,���쐼,7.3
2021/11/24,16:50,1.5,���쐼,4.8
2021/11/24,17:00,1.4,���쐼,3.6
2021/11/24,17:10,1.5,��,3.9
2021/11/24,17:20,1.5,���쐼,5.2
2021/11/24,17:30,1.5,���쐼,6.8
2021/11/24,17:40,1.5,��,11.8
2021/11/24,17:50,1.5,���쐼,8.3
2021/11/24,18:00,1.5,���쐼,10.2
2021/11/24,18:10,1.6,���쐼,8.6
2021/11/24,18:20,1.5,���쐼,8.1
2021/11/24,18:30,1.5,���쐼,7.4
2021/11/24,18:40,1.5,���쐼,7.7
2021/11/24,18:50,1.4,���쐼,6.6
2021/11/24,19:00,1.6,�쐼,7.5
2021/11/24,19:10,1.5,���쐼,5.9
2021/11/24,19:20,1.4,���쐼,5.5
2021/11/24,19:30,1.5,���쐼,5.2
2021/11/24,19:40,1.5,�쐼,2.3
2021/11/24,19:50,1.4,���k��,1.5
2021/11/24,20:00,1.5,�k��,1.4
2021/11/24,20:10,1.5,��쐼,0.9
2021/11/24,20:20,1.5,��,1.7
2021/11/24,20:30,1.4,�쐼,2.9
2021/11/24,20:40,1.5,���쐼,1.5
2021/11/24,20:50,1.5,��쐼,1.2
2021/11/24,21:00,1.5,��쐼,1.1
2021/11/24,21:10,1.5,��쓌,1.2
2021/11/24,21:20,1.5,��쓌,2.3
2021/11/24,21:30,1.5,-,CALM
2021/11/24,21:40,1.5,��쓌,1.2
2021/11/24,21:50,1.5,��,3.4
2021/11/24,22:00,1.5,��,4.2
2021/11/24,22:10,1.5,��,3.2
2021/11/24,22:20,1.5,��,3.0
2021/11/24,22:30,1.5,��쓌,1.7
2021/11/24,22:40,1.5,��,3.3
2021/11/24,22:50,1.5,��,4.6
2021/11/24,23:00,1.5,��쐼,3.8
2021/11/24,23:10,1.4,��쐼,2.2
2021/11/24,23:20,1.5,��쐼,1.7
2021/11/24,23:30,1.6,��,0.6
2021/11/24,23:40,1.4,�쐼,0.9
2021/11/24,23:50,1.6,��,2.0
